TimeMDT,TemperatureF,Dew PointF,Humidity,Sea Level PressureIn,VisibilityMPH,Wind Direction,Wind SpeedMPH,Gust SpeedMPH,PrecipitationIn,Events,Conditions,WindDirDegrees,DateUTC
12:15 AM,66.4,57.6,73,30.23,10.0,NNE,4.6,-,N/A,,Clear,30,2013-08-05 06:15:00
12:35 AM,66.2,57.2,73,30.23,7.0,Calm,Calm,-,N/A,,Clear,0,2013-08-05 06:35:00
12:55 AM,65.3,57.6,76,30.23,7.0,NE,5.8,-,N/A,,Clear,50,2013-08-05 06:55:00
1:15 AM,65.5,57.4,75,30.23,10.0,NE,4.6,-,N/A,,Clear,40,2013-08-05 07:15:00
1:35 AM,65.3,57.6,76,30.23,7.0,NE,6.9,-,N/A,,Clear,50,2013-08-05 07:35:00
1:55 AM,66.2,56.3,70,30.23,10.0,NE,8.1,-,N/A,,Scattered Clouds,50,2013-08-05 07:55:00
2:15 AM,65.8,57.0,73,30.23,10.0,ENE,6.9,-,N/A,,Scattered Clouds,60,2013-08-05 08:15:00
2:35 AM,65.7,57.2,74,30.23,7.0,NNE,6.9,-,N/A,,Scattered Clouds,30,2013-08-05 08:35:00
2:55 AM,65.7,57.6,75,30.23,10.0,North,5.8,-,N/A,,Clear,10,2013-08-05 08:55:00
3:15 AM,65.3,58.1,77,30.23,10.0,NE,5.8,-,N/A,,Scattered Clouds,50,2013-08-05 09:15:00
3:35 AM,65.7,57.7,76,30.23,10.0,NE,3.5,-,N/A,,Mostly Cloudy,50,2013-08-05 09:35:00
3:55 AM,64.6,57.9,79,30.22,7.0,East,4.6,-,N/A,,Scattered Clouds,100,2013-08-05 09:55:00
4:15 AM,64.0,58.1,81,30.21,10.0,ENE,4.6,-,N/A,,Clear,70,2013-08-05 10:15:00
4:35 AM,63.9,57.7,80,30.20,7.0,ENE,5.8,-,N/A,,Clear,70,2013-08-05 10:35:00
4:55 AM,63.9,57.4,79,30.20,10.0,ENE,4.6,-,N/A,,Clear,60,2013-08-05 10:55:00
5:15 AM,64.8,56.7,75,30.20,7.0,NE,5.8,-,N/A,,Clear,40,2013-08-05 11:15:00
5:35 AM,64.4,57.4,78,30.21,7.0,ENE,6.9,-,N/A,,Clear,70,2013-08-05 11:35:00
5:55 AM,64.4,55.9,74,30.21,7.0,ENE,6.9,-,N/A,,Clear,60,2013-08-05 11:55:00
6:15 AM,64.4,55.4,73,30.22,10.0,NE,9.2,-,N/A,,Clear,50,2013-08-05 12:15:00
6:35 AM,65.1,54.5,68,30.23,7.0,ENE,9.2,-,N/A,,Clear,60,2013-08-05 12:35:00
6:55 AM,65.1,55.4,71,30.23,5.0,ENE,5.8,-,N/A,,Haze,70,2013-08-05 12:55:00
7:15 AM,64.9,56.3,74,30.23,7.0,NNE,3.5,-,N/A,,Mostly Cloudy,30,2013-08-05 13:15:00
7:35 AM,65.7,56.5,72,30.24,7.0,East,3.5,-,N/A,,Scattered Clouds,90,2013-08-05 13:35:00
7:55 AM,66.2,56.1,70,30.25,7.0,East,3.5,-,N/A,,Clear,80,2013-08-05 13:55:00
8:15 AM,66.2,55.6,69,30.25,7.0,ENE,4.6,-,N/A,,Scattered Clouds,60,2013-08-05 14:15:00
8:35 AM,67.3,55.4,66,30.25,5.0,ENE,6.9,-,N/A,,Haze,60,2013-08-05 14:35:00
8:55 AM,68.0,56.5,67,30.25,5.0,ENE,6.9,-,N/A,,Haze,60,2013-08-05 14:55:00
9:15 AM,68.5,58.5,70,30.25,7.0,ESE,4.6,-,N/A,,Scattered Clouds,120,2013-08-05 15:15:00
9:35 AM,68.5,58.5,70,30.25,7.0,East,3.5,-,N/A,,Mostly Cloudy,90,2013-08-05 15:35:00
9:55 AM,68.9,58.5,69,30.25,7.0,Calm,Calm,-,N/A,,Scattered Clouds,0,2013-08-05 15:55:00
10:15 AM,70.9,59.0,66,30.25,5.0,ENE,3.5,-,N/A,,Haze,60,2013-08-05 16:15:00
10:35 AM,72.1,58.1,61,30.25,5.0,East,3.5,-,N/A,,Haze,100,2013-08-05 16:35:00
10:55 AM,73.6,57.2,56,30.24,5.0,ENE,3.5,-,N/A,,Haze,70,2013-08-05 16:55:00
11:15 AM,75.9,57.4,52,30.24,7.0,Calm,Calm,-,N/A,,Scattered Clouds,0,2013-08-05 17:15:00
11:35 AM,76.6,57.6,52,30.23,7.0,SE,3.5,-,N/A,,Mostly Cloudy,130,2013-08-05 17:35:00
11:55 AM,77.7,55.9,47,30.23,7.0,Calm,Calm,-,N/A,,Scattered Clouds,0,2013-08-05 17:55:00
12:15 PM,79.3,54.3,42,30.22,7.0,ESE,4.6,-,N/A,,Clear,110,2013-08-05 18:15:00
12:35 PM,81.1,54.5,40,30.21,10.0,SE,5.8,-,N/A,,Clear,140,2013-08-05 18:35:00
12:55 PM,82.6,51.1,33,30.19,7.0,ESE,6.9,-,N/A,,Clear,110,2013-08-05 18:55:00
1:15 PM,83.7,53.4,35,30.18,10.0,East,5.8,-,N/A,Thunderstorm,Clear,100,2013-08-05 19:15:00
1:35 PM,84.7,52.5,33,30.17,10.0,South,4.6,-,N/A,,Clear,190,2013-08-05 19:35:00
1:55 PM,83.3,52.5,34,30.17,10.0,SE,3.5,-,N/A,Thunderstorm,Clear,140,2013-08-05 19:55:00
2:15 PM,84.4,54.5,36,30.16,7.0,SSW,8.1,-,N/A,,Clear,200,2013-08-05 20:15:00
2:35 PM,84.0,54.9,37,30.16,10.0,SSW,8.1,-,N/A,,Clear,210,2013-08-05 20:35:00
2:55 PM,83.3,54.7,37,30.16,5.0,WSW,12.7,17.3,N/A,,Haze,250,2013-08-05 20:55:00
3:15 PM,82.2,52.2,35,30.16,5.0,SW,10.4,-,N/A,,Haze,230,2013-08-05 21:15:00
3:35 PM,80.6,51.3,36,30.15,7.0,SW,6.9,-,N/A,,Scattered Clouds,220,2013-08-05 21:35:00
3:55 PM,80.4,53.2,39,30.15,10.0,SW,5.8,-,N/A,,Clear,220,2013-08-05 21:55:00
4:15 PM,81.5,54.1,39,30.14,7.0,SSW,11.5,-,N/A,,Clear,210,2013-08-05 22:15:00
4:35 PM,82.2,49.8,32,30.13,7.0,SW,6.9,-,N/A,,Clear,230,2013-08-05 22:35:00
4:55 PM,82.4,51.8,35,30.12,7.0,WSW,5.8,-,N/A,,Clear,240,2013-08-05 22:55:00
5:15 PM,82.8,50.4,32,30.11,5.0,Calm,Calm,-,N/A,,Haze,0,2013-08-05 23:15:00
5:35 PM,83.8,50.0,31,30.11,5.0,Calm,Calm,-,N/A,,Haze,0,2013-08-05 23:35:00
5:55 PM,82.8,50.9,33,30.10,7.0,Calm,Calm,-,N/A,,Clear,0,2013-08-05 23:55:00
6:15 PM,84.0,50.9,32,30.09,7.0,Calm,Calm,-,N/A,,Clear,0,2013-08-06 00:15:00
6:35 PM,84.4,46.8,27,30.09,7.0,Calm,Calm,-,N/A,,Clear,0,2013-08-06 00:35:00
6:55 PM,84.9,46.8,26,30.09,7.0,Calm,Calm,-,N/A,,Clear,0,2013-08-06 00:55:00
7:15 PM,84.4,47.5,28,30.09,10.0,Calm,Calm,-,N/A,,Clear,0,2013-08-06 01:15:00
7:35 PM,83.1,48.2,30,30.08,7.0,Calm,Calm,-,N/A,,Clear,0,2013-08-06 01:35:00
7:55 PM,81.5,48.6,32,30.08,7.0,Calm,Calm,-,N/A,,Clear,0,2013-08-06 01:55:00
8:15 PM,78.4,51.8,39,30.08,10.0,NE,4.6,-,N/A,,Clear,50,2013-08-06 02:15:00
8:35 PM,76.1,52.2,43,30.09,7.0,NNE,5.8,-,N/A,,Clear,20,2013-08-06 02:35:00
8:55 PM,75.0,50.9,43,30.10,7.0,North,6.9,-,N/A,,Clear,10,2013-08-06 02:55:00
9:15 PM,73.6,51.3,45,30.11,10.0,North,5.8,-,N/A,,Clear,10,2013-08-06 03:15:00
9:35 PM,74.8,50.0,42,30.11,10.0,NW,4.6,-,N/A,,Clear,320,2013-08-06 03:35:00
9:55 PM,75.0,51.8,44,30.12,10.0,Calm,Calm,-,N/A,,Scattered Clouds,0,2013-08-06 03:55:00
10:15 PM,74.8,48.7,40,30.12,10.0,Calm,Calm,-,N/A,,Clear,0,2013-08-06 04:15:00
10:35 PM,72.7,50.4,45,30.13,10.0,Calm,Calm,-,N/A,,Clear,0,2013-08-06 04:35:00
10:55 PM,71.2,52.2,51,30.13,10.0,East,6.9,-,N/A,,Clear,90,2013-08-06 04:55:00
11:15 PM,71.6,51.8,50,30.12,10.0,East,4.6,-,N/A,,Clear,80,2013-08-06 05:15:00
11:35 PM,69.8,52.5,54,30.12,7.0,NNE,4.6,-,N/A,,Clear,20,2013-08-06 05:35:00
11:55 PM,69.8,52.2,53,30.13,7.0,NE,6.9,-,N/A,,Clear,40,2013-08-06 05:55:00